Stations météo

réclame
Mon MeteoGroup
Jaen, Espagne (8417): Température de l'air & dewpoint: 11.01.2020 23:00:00 - 17.01.2020 23:00:00 (CET)Jaen, Espagne (8417): Vitesse du vent: 11.01.2020 23:00:00 - 17.01.2020 23:00:00 (CET)Jaen, Espagne (8417): Direction du vent: 11.01.2020 23:00:00 - 17.01.2020 23:00:00 (CET)Jaen, Espagne (8417): reduced air pressure: 11.01.2020 23:00:00 - 17.01.2020 23:00:00 (CET)Jaen, Espagne (8417): visibility: 11.01.2020 23:00:00 - 17.01.2020 23:00:00 (CET)Jaen, Espagne (8417): Quantités de précipitations: 11.01.2020 23:00:00 - 17.01.2020 23:00:00 (CET)
Date & Time tt [°C] td [°C] ff [km/h] ff [knt] dd ppp [hPa] vv [km] rr [mm]
17.01.2020 23:00:00 9,9 5,7 5 3 S 1033,9 20 0,0
17.01.2020 22:00:00 10,3 5,3 8 4 SW 1033,9 20 -
17.01.2020 21:00:00 9,2 4,6 8 4 SW 1034,0 20 0,0
17.01.2020 20:00:00 9,4 4,6 5 3 SW 1033,5 20 0,0
17.01.2020 19:00:00 10,4 6,0 8 4 SW 1032,7 20 -
17.01.2020 18:00:00 12,1 7,2 4 2 SSW 1032,0 20 0,0
17.01.2020 17:00:00 13,4 7,6 4 2 SW 1031,1 20 0,0
17.01.2020 16:00:00 13,6 6,9 11 6 NW 1031,5 20 -
17.01.2020 15:00:00 13,5 7,5 8 4 SE 1031,6 20 0,0
17.01.2020 14:00:00 14,0 7,3 4 2 S 1031,9 20 0,0
17.01.2020 13:00:00 12,5 5,6 2 1 SE 1033,3 20 -
17.01.2020 12:00:00 11,7 4,9 5 3 E 1034,1 19 0,0
17.01.2020 11:00:00 11,4 3,2 4 2 ENE 1034,2 20 0,0
17.01.2020 10:00:00 10,7 2,8 2 1 SSW 1033,3 20 -
17.01.2020 09:00:00 9,6 2,0 4 2 SE 1032,9 20 0,0
17.01.2020 08:00:00 9,1 2,0 2 1 WSW 1032,7 20 0,0
17.01.2020 07:00:00 8,6 1,0 2 1 E 1032,1 20 -
17.01.2020 06:00:00 9,4 0,0 2 1 SW 1031,6 20 0,0
17.01.2020 05:00:00 10,3 -1,1 4 2 ESE 1030,8 20 0,0
17.01.2020 04:00:00 9,7 -1,1 2 1 W 1031,1 20 -
17.01.2020 03:00:00 9,7 -0,8 4 2 SSE 1031,2 20 0,0
17.01.2020 02:00:00 10,3 1,6 5 3 WNW 1031,1 20 0,0
17.01.2020 01:00:00 9,2 1,8 4 2 S 1031,5 20 -
17.01.2020 00:00:00 11,1 2,1 4 2 W 1030,9 20 0,0
16.01.2020 23:00:00 12,0 1,0 8 4 WSW 1030,1 20 0,0
16.01.2020 22:00:00 11,3 -0,5 8 4 SW 1029,9 20 -
16.01.2020 21:00:00 11,6 -0,9 9 5 WSW 1029,4 20 0,0
16.01.2020 20:00:00 10,5 1,3 9 5 S 1029,3 20 0,0
16.01.2020 19:00:00 10,5 2,3 8 4 SSW 1028,9 20 -
16.01.2020 18:00:00 11,2 3,0 11 6 W 1028,3 20 0,0
16.01.2020 17:00:00 14,0 2,2 8 4 W 1027,4 20 0,0
16.01.2020 16:00:00 15,2 2,0 4 2 WNW 1026,8 20 -
16.01.2020 15:00:00 15,5 0,9 4 2 N 1026,8 20 0,0
16.01.2020 14:00:00 15,3 1,4 4 2 NNE 1027,4 20 0,0
16.01.2020 13:00:00 14,0 2,9 4 2 NE 1028,3 20 -
16.01.2020 12:00:00 12,1 2,5 2 1 N 1029,5 19 0,0
16.01.2020 11:00:00 11,0 2,3 2 1 NW 1029,8 19 0,0
16.01.2020 10:00:00 10,6 0,6 2 1 WSW 1029,2 20 -
16.01.2020 09:00:00 8,4 -2,0 4 2 W 1029,5 20 0,0
16.01.2020 08:00:00 8,4 -1,4 4 2 S 1029,1 20 0,0
16.01.2020 07:00:00 7,6 -1,6 4 2 W 1029,1 20 -
16.01.2020 06:00:00 8,3 -2,1 8 4 SSE 1028,9 20 0,0
16.01.2020 05:00:00 9,6 -1,5 9 5 S 1028,8 20 0,0
16.01.2020 04:00:00 9,5 -1,9 13 7 S 1029,2 20 -
16.01.2020 03:00:00 9,0 -0,1 8 4 SW 1029,3 20 0,0
16.01.2020 02:00:00 9,3 -0,1 9 5 S 1029,3 20 0,0
16.01.2020 01:00:00 7,8 -0,2 4 2 S 1029,9 20 -
16.01.2020 00:00:00 7,4 0,1 4 2 SSE 1030,2 20 0,0
15.01.2020 23:00:00 7,4 0,8 4 2 SW 1030,1 20 0,0
15.01.2020 22:00:00 7,9 -0,1 2 1 SSW 1029,7 20 -
15.01.2020 21:00:00 8,5 1,6 4 2 SW 1029,3 20 0,0
15.01.2020 20:00:00 8,6 3,6 9 5 S 1029,6 20 0,0
15.01.2020 19:00:00 8,6 4,0 8 4 WSW 1029,2 20 -
15.01.2020 18:00:00 9,6 4,8 5 3 WSW 1028,5 20 0,0
15.01.2020 17:00:00 12,4 5,3 4 2 W 1027,4 20 0,0
15.01.2020 16:00:00 13,2 4,9 2 1 NW 1026,9 20 -
15.01.2020 15:00:00 13,5 4,6 2 1 NE 1026,7 20 0,0
15.01.2020 14:00:00 12,4 4,6 5 3 NNW 1027,3 20 0,0
15.01.2020 13:00:00 11,6 4,3 2 1 ENE 1027,8 20 -
15.01.2020 12:00:00 10,3 4,0 5 3 N 1028,2 17 0,0
15.01.2020 11:00:00 10,3 3,6 2 1 SE 1027,5 18 0,0
15.01.2020 10:00:00 6,8 1,9 4 2 WSW 1027,7 20 -
15.01.2020 09:00:00 5,3 1,4 4 2 WSW 1027,5 20 0,0
15.01.2020 08:00:00 5,1 1,9 4 2 W 1027,3 20 0,0
15.01.2020 07:00:00 4,9 1,9 2 1 NW 1026,9 20 -
15.01.2020 06:00:00 - - - - - - - -
15.01.2020 05:00:00 - - - - - - - -
15.01.2020 04:00:00 5,4 1,9 5 3 WSW 1026,5 20 -
15.01.2020 03:00:00 6,1 1,8 4 2 S 1026,6 20 0,0
15.01.2020 02:00:00 6,0 2,1 9 5 S 1026,9 20 0,0
15.01.2020 01:00:00 5,1 1,9 4 2 SSW 1027,4 16 -
15.01.2020 00:00:00 4,6 1,8 5 3 WSW 1027,4 20 0,0
14.01.2020 23:00:00 5,3 1,8 4 2 SSW 1026,9 20 0,0
14.01.2020 22:00:00 6,0 1,5 4 2 WSW 1026,5 20 -
14.01.2020 21:00:00 6,6 1,5 5 3 SW 1026,1 20 0,0
14.01.2020 20:00:00 7,5 2,8 8 4 S 1025,8 20 0,0
14.01.2020 19:00:00 6,7 3,1 9 5 S 1025,9 20 -
14.01.2020 18:00:00 8,1 3,5 4 2 WSW 1025,0 20 0,0
14.01.2020 17:00:00 9,4 3,6 5 3 S 1024,3 20 0,0
14.01.2020 16:00:00 10,0 3,0 9 5 NNW 1024,2 20 -
14.01.2020 15:00:00 9,8 2,9 8 4 NW 1024,2 20 0,0
14.01.2020 14:00:00 9,5 3,2 13 7 NNW 1024,7 20 0,0
14.01.2020 13:00:00 9,3 2,6 8 4 NNW 1025,5 20 -
14.01.2020 12:00:00 8,2 2,6 4 2 N 1026,1 16 0,0
14.01.2020 11:00:00 7,5 2,4 2 1 NNW 1026,0 18 0,0
14.01.2020 10:00:00 6,3 2,7 0 0 N 1025,8 20 -
14.01.2020 09:00:00 4,1 2,6 2 1 S 1025,9 20 0,0
14.01.2020 08:00:00 3,2 1,9 2 1 S 1026,2 20 0,0
14.01.2020 07:00:00 3,1 1,5 2 1 ENE 1026,0 20 -
14.01.2020 06:00:00 4,4 1,6 5 3 SW 1025,4 20 0,0
14.01.2020 05:00:00 4,0 1,5 4 2 SSW 1025,7 20 0,0
14.01.2020 04:00:00 4,3 1,3 4 2 SSE 1026,2 20 -
14.01.2020 03:00:00 4,7 1,0 2 1 SW 1026,2 20 0,0
14.01.2020 02:00:00 6,1 0,8 11 6 S 1025,9 20 0,0
14.01.2020 01:00:00 5,6 0,8 8 4 SW 1026,7 20 -
14.01.2020 00:00:00 5,1 1,2 8 4 S 1027,3 20 0,0
13.01.2020 23:00:00 5,2 1,1 4 2 SW 1027,3 20 0,0
13.01.2020 22:00:00 6,0 0,7 8 4 WSW 1026,9 20 -
13.01.2020 21:00:00 7,1 1,6 11 6 S 1026,8 20 0,0
13.01.2020 20:00:00 6,8 1,7 8 4 WSW 1027,2 20 0,0
13.01.2020 19:00:00 7,1 1,8 8 4 SW 1027,0 20 -
13.01.2020 18:00:00 8,7 2,3 8 4 WSW 1026,2 20 0,0
13.01.2020 17:00:00 10,5 3,3 4 2 S 1025,4 20 0,0
13.01.2020 16:00:00 11,4 2,1 4 2 N 1025,5 20 -
13.01.2020 15:00:00 11,9 2,1 4 2 N 1025,8 20 0,0
13.01.2020 14:00:00 11,7 2,7 5 3 N 1026,6 20 0,0
13.01.2020 13:00:00 11,2 1,7 4 2 NE 1027,7 20 -
13.01.2020 12:00:00 9,7 1,3 4 2 N 1028,8 19 0,0
13.01.2020 11:00:00 9,1 1,7 2 1 E 1028,9 19 0,0
13.01.2020 10:00:00 6,9 1,0 2 1 W 1028,6 20 -
13.01.2020 09:00:00 4,0 0,1 2 1 WSW 1029,3 20 0,0
13.01.2020 08:00:00 3,8 -0,4 2 1 SW 1029,1 20 0,0
13.01.2020 07:00:00 3,5 -0,3 2 1 SSW 1029,2 20 -
13.01.2020 06:00:00 - - - - - - - -
13.01.2020 05:00:00 - - - - - - - -
13.01.2020 04:00:00 - - - - - - - -
13.01.2020 03:00:00 - - - - - - - -
13.01.2020 02:00:00 - - - - - - - -
13.01.2020 01:00:00 - - - - - - - -
13.01.2020 00:00:00 - - - - - - - -
12.01.2020 23:00:00 - - - - - - - -
12.01.2020 22:00:00 - - - - - - - -
12.01.2020 21:00:00 - - - - - - - -
12.01.2020 20:00:00 - - - - - - - -
12.01.2020 19:00:00 - - - - - - - -
12.01.2020 18:00:00 - - - - - - - -
12.01.2020 17:00:00 - - - - - - - -
12.01.2020 16:00:00 - - - - - - - -
12.01.2020 15:00:00 - - - - - - - -
12.01.2020 14:00:00 - - - - - - - -
12.01.2020 13:00:00 - - - - - - - -
12.01.2020 12:00:00 - - - - - - - -
12.01.2020 11:00:00 - - - - - - - -
12.01.2020 10:00:00 - - - - - - - -
12.01.2020 09:00:00 - - - - - - - -
12.01.2020 08:00:00 - - - - - - - -
12.01.2020 07:00:00 - - - - - - - -
12.01.2020 06:00:00 - - - - - - - -
12.01.2020 05:00:00 - - - - - - - -
12.01.2020 04:00:00 - - - - - - - -
12.01.2020 03:00:00 - - - - - - - -
12.01.2020 02:00:00 - - - - - - - -
12.01.2020 01:00:00 - - - - - - - -
12.01.2020 00:00:00 - - - - - - - -
11.01.2020 23:00:00 - - - - - - - -

tt = Température de l'air
td = dewpoint
ff = Vitesse du vent
dd = Direction du vent
ppp = reduced air pressure
vv = visibility
rr = Quantités de précipitations

stations d'obs. à proximité